EW9704 Weather Reports


Display with metric or nautical units.
time (UTC)temp
F
wind
direction
speed
MPH
gust
MPH
rain 1hr
in
rain 24hr
in
rain mn
in
humidity
%
barometer
mb
20260505153057 73 238 3.0 16.0 0.00 0.00 0.00 1 1008.1
20260505151550 73 275 4.0 14.0 0.00 0.00 0.00 2 1008.1
20260505124505 0 0.0 0.0 0.00 0.00 0.00 1007.2
20260505123113 0 0.0 0.0 0.00 0.00 0.00 1006.9
20260505121552 0 0.0 0.0 0.00 0.00 0.00 1006.7
20260505120049 0 0.0 0.0 0.00 0.00 0.00 1006.8
20260505114604 0 0.0 0.0 0.00 0.00 0.00 1006.6
20260505113041 0 0.0 0.0 0.00 0.00 0.00 1006.4
20260505111552 0 0.0 0.0 0.00 0.00 0.00 1006.8
20260505101518 0 0.0 0.0 0.00 0.00 0.00 1006.8
20260505100013 0 0.0 0.0 0.00 0.00 0.00 1006.7
20260505094509 0 0.0 0.0 0.00 0.00 0.00 1006.8
20260505093004 0 0.0 0.0 0.00 0.00 0.00 1006.9
20260505091600 -90 278 2.0 15.0 0.00 0.00 0.00 1 1006.9
20260505090059 70 205 3.0 12.0 0.00 0.00 0.00 1 1007.0
20260505084551 70 271 4.0 12.0 0.00 0.00 0.00 1 1007.3
20260505083059 70 210 5.0 13.0 0.00 0.00 0.00 3 1007.3
20260505081548 70 214 2.0 12.0 0.00 0.00 0.00 5 1007.6
20260505080042 70 216 4.0 10.0 0.00 0.00 0.00 3 1007.9
20260505074536 70 171 4.0 11.0 0.00 0.00 0.00 5 1008.0
20260505073031 70 288 4.0 10.0 0.00 0.00 0.00 7 1008.1
20260505071536 70 188 4.0 11.0 0.00 0.00 0.00 9 1008.3
20260505070032 70 215 4.0 14.0 0.00 0.00 0.00 11 1008.4
20260505064540 70 202 4.0 11.0 0.00 0.00 0.00 13 1008.6
20260505063023 70 214 5.0 9.0 0.00 0.00 0.00 13 1008.8
20260505061531 70 222 4.0 13.0 0.00 0.00 0.00 14 1008.9
20260505060026 70 213 7.0 12.0 0.00 0.00 0.00 15 1008.8
20260505054517 70 174 3.0 13.0 0.00 0.00 0.00 19 1008.6
20260505053016 70 222 4.0 13.0 0.00 0.00 0.00 25 1008.6
20260505051513 70 205 6.0 14.0 0.00 0.00 0.00 31 1008.6
20260505041612 72 233 4.0 14.0 0.00 0.00 0.00 50 1008.5
20260505040050 72 212 3.0 14.0 0.00 0.00 0.00 53 1008.5
20260505034547 72 254 4.0 13.0 0.00 0.00 0.00 55 1008.6
20260505033040 72 177 4.0 13.0 0.00 0.00 0.00 59 1008.5
20260505031536 73 224 4.0 10.0 0.00 0.00 0.00 60 1008.4
20260505030032 73 235 3.0 11.0 0.00 0.00 0.00 61 1008.6
20260505024539 73 180 4.0 10.0 0.00 0.00 0.00 63 1008.3
20260505023023 73 205 3.0 9.0 0.00 0.00 0.00 66 1008.4
20260505021519 74 271 2.0 10.0 0.00 0.00 0.00 67 1008.2
20260505020014 74 261 2.0 9.0 0.00 0.00 0.00 68 1007.9
20260505014510 74 210 3.0 9.0 0.00 0.00 0.00 69 1008.2
20260505013015 75 200 2.0 6.0 0.00 0.00 0.00 69 1008.2
20260505011600 76 249 3.0 9.0 0.00 0.00 0.00 69 1007.9
20260505010056 77 280 3.0 8.0 0.00 0.00 0.00 68 1008.0
20260505004551 77 224 3.0 9.0 0.00 0.00 0.00 67 1007.9
20260505003046 78 222 3.0 10.0 0.00 0.00 0.00 66 1007.8
20260505001550 79 228 3.0 8.0 0.00 0.00 0.00 65 1008.0
20260505000042 79 216 2.0 9.0 0.00 0.00 0.00 64 1008.2
20260504234533 79 214 5.0 12.0 0.00 0.00 0.00 63 1008.2
20260504233029 80 214 5.0 9.0 0.00 0.00 0.00 61 1008.3
20260504231530 81 203 2.0 18.0 0.00 0.00 0.00 62 1008.3
20260504230019 81 189 5.0 12.0 0.00 0.00 0.00 60 1008.6
20260504224517 82 231 5.0 15.0 0.00 0.00 0.00 59 1008.7
20260504223010 82 256 4.0 15.0 0.00 0.00 0.00 59 1008.8
20260504221506 82 266 5.0 14.0 0.00 0.00 0.00 60 1009.0
20260504220003 82 278 4.0 13.0 0.00 0.00 0.00 61 1008.9
20260504214556 82 226 4.0 11.0 0.00 0.00 0.00 60 1009.2
20260504213051 80 228 6.0 13.0 0.00 0.00 0.00 62 1009.5
20260504211551 81 234 5.0 9.0 0.00 0.00 0.00 61 1009.8
20260504204547 81 227 5.0 14.0 0.00 0.00 0.00 60 1010.4
20260504203037 81 233 5.0 13.0 0.00 0.00 0.00 61 1010.6
20260504201530 81 218 4.0 10.0 0.00 0.00 0.00 61 1010.9
20260504200026 81 221 3.0 10.0 0.00 0.00 0.00 60 1011.3
20260504194533 80 226 1.0 9.0 0.00 0.00 0.00 62 1011.4
20260504193019 79 292 4.0 11.0 0.00 0.00 0.00 62 1011.7
20260504191511 79 242 5.0 16.0 0.00 0.00 0.00 62 1012.1
20260504190006 78 218 3.0 11.0 0.00 0.00 0.00 63 1012.1
20260504184506 78 220 3.0 17.0 0.00 0.00 0.00 63 1012.2
20260504183058 77 276 3.0 14.0 0.00 0.00 0.00 63 1012.5
20260504181558 77 249 6.0 13.0 0.00 0.00 0.00 63 1012.8
20260504180135 77 219 5.0 10.0 0.00 0.00 0.00 62 1013.0
20260504174548 79 268 7.0 14.0 0.00 0.00 0.00 59 1013.2
20260504173046 78 254 6.0 13.0 0.00 0.00 0.00 60 1013.4
20260504171535 77 178 6.0 14.0 0.00 0.00 0.00 61 1013.5